| time (UTC) | temp F | wind direction | speed MPH | gust MPH | rain 1hr in | rain 24hr in | rain mn in | humidity % | barometer mb |
| 20260509055206 | 60 | 187 | 2.0 | 8.0 | 0.00 | 0.00 | 0.00 | 56 | 1009.1 |
| 20260509054706 | 60 | 193 | 2.0 | 11.0 | 0.00 | 0.00 | 0.00 | 56 | 1009.1 |
| 20260509054206 | 60 | 195 | 3.0 | 11.0 | 0.00 | 0.00 | 0.00 | 56 | 1009.2 |
| 20260509053705 | 60 | 215 | 2.0 | 8.0 | 0.00 | 0.00 | 0.00 | 56 | 1009.2 |
| 20260509053203 | 60 | 205 | 2.0 | 8.0 | 0.00 | 0.00 | 0.00 | 56 | 1009.2 |
| 20260509052704 | 60 | 184 | 2.0 | 6.0 | 0.00 | 0.00 | 0.00 | 56 | 1009.3 |
| 20260509052156 | 60 | 183 | 2.0 | 7.0 | 0.00 | 0.00 | 0.00 | 56 | 1009.1 |
| 20260509051657 | 60 | 207 | 3.0 | 7.0 | 0.00 | 0.00 | 0.00 | 55 | 1009.2 |
| 20260509051157 | 60 | 153 | 3.0 | 9.0 | 0.00 | 0.00 | 0.00 | 55 | 1009.2 |
| 20260509050657 | 60 | 193 | 3.0 | 9.0 | 0.00 | 0.00 | 0.00 | 55 | 1009.2 |
| 20260509050157 | 60 | 224 | 3.0 | 7.0 | 0.00 | 0.00 | 0.00 | 55 | 1009.2 |
| 20260509045657 | 60 | 184 | 3.0 | 8.0 | 0.00 | 0.00 | 0.00 | 55 | 1009.2 |
| 20260509044652 | 60 | 177 | 3.0 | 8.0 | 0.00 | 0.00 | 0.00 | 55 | 1009.2 |
| 20260509044152 | 60 | 225 | 2.0 | 8.0 | 0.00 | 0.00 | 0.00 | 55 | 1009.2 |
| 20260509043654 | 60 | 204 | 2.0 | 6.0 | 0.00 | 0.00 | 0.00 | 54 | 1009.1 |
| 20260509043153 | 60 | 225 | 2.0 | 6.0 | 0.00 | 0.00 | 0.00 | 54 | 1009.2 |
| 20260509042145 | 60 | 194 | 2.0 | 9.0 | 0.00 | 0.00 | 0.00 | 54 | 1009.3 |
| 20260509041645 | 61 | 192 | 3.0 | 9.0 | 0.00 | 0.00 | 0.00 | 53 | 1009.2 |
| 20260509041144 | 61 | 186 | 2.0 | 5.0 | 0.00 | 0.00 | 0.00 | 53 | 1009.3 |
| 20260509040645 | 61 | 197 | 3.0 | 7.0 | 0.00 | 0.00 | 0.00 | 53 | 1009.2 |
| 20260509040146 | 61 | 231 | 4.0 | 8.0 | 0.00 | 0.00 | 0.00 | 52 | 1009.3 |
| 20260509035645 | 61 | 201 | 3.0 | 8.0 | 0.00 | 0.00 | 0.00 | 52 | 1009.3 |
| 20260509035137 | 61 | 200 | 3.0 | 7.0 | 0.00 | 0.00 | 0.00 | 52 | 1009.4 |
| 20260509034638 | 62 | 198 | 2.0 | 9.0 | 0.00 | 0.00 | 0.00 | 51 | 1009.3 |
| 20260509033637 | 62 | 245 | 3.0 | 7.0 | 0.00 | 0.00 | 0.00 | 51 | 1009.3 |
| 20260509033139 | 62 | 222 | 2.0 | 7.0 | 0.00 | 0.00 | 0.00 | 51 | 1009.3 |
| 20260509032637 | 62 | 215 | 2.0 | 6.0 | 0.00 | 0.00 | 0.00 | 51 | 1009.4 |
| 20260509032131 | 62 | 142 | 2.0 | 6.0 | 0.00 | 0.00 | 0.00 | 50 | 1009.4 |
| 20260509031134 | 63 | 203 | 2.0 | 5.0 | 0.00 | 0.00 | 0.00 | 50 | 1009.5 |
| 20260509030632 | 63 | 203 | 2.0 | 7.0 | 0.00 | 0.00 | 0.00 | 49 | 1009.5 |
| 20260509030132 | 63 | 203 | 2.0 | 7.0 | 0.00 | 0.00 | 0.00 | 49 | 1009.5 |
| 20260509025631 | 63 | 211 | 2.0 | 7.0 | 0.00 | 0.00 | 0.00 | 49 | 1009.6 |
| 20260509025127 | 63 | 153 | 1.0 | 7.0 | 0.00 | 0.00 | 0.00 | 49 | 1009.6 |
| 20260509024628 | 63 | 212 | 1.0 | 3.0 | 0.00 | 0.00 | 0.00 | 50 | 1009.6 |
| 20260509024125 | 64 | 207 | 1.0 | 4.0 | 0.00 | 0.00 | 0.00 | 51 | 1009.5 |
| 20260509023126 | 64 | 225 | 1.0 | 3.0 | 0.00 | 0.00 | 0.00 | 51 | 1009.5 |
| 20260509022628 | 64 | 211 | 0.0 | 3.0 | 0.00 | 0.00 | 0.00 | 50 | 1009.5 |
| 20260509022123 | 64 | 155 | 1.0 | 3.0 | 0.00 | 0.00 | 0.00 | 50 | 1009.4 |
| 20260509021625 | 64 | 273 | 1.0 | 3.0 | 0.00 | 0.00 | 0.00 | 50 | 1009.4 |
| 20260509021124 | 64 | 208 | 1.0 | 4.0 | 0.00 | 0.00 | 0.00 | 49 | 1009.3 |
| 20260509020625 | 65 | 197 | 1.0 | 6.0 | 0.00 | 0.00 | 0.00 | 48 | 1009.3 |
| 20260509020124 | 64 | 236 | 1.0 | 6.0 | 0.00 | 0.00 | 0.00 | 48 | 1009.2 |
| 20260509015624 | 65 | 200 | 1.0 | 4.0 | 0.00 | 0.00 | 0.00 | 48 | 1009.2 |
| 20260509015125 | 65 | 203 | 2.0 | 8.0 | 0.00 | 0.00 | 0.00 | 47 | 1009.3 |
| 20260509014617 | 65 | 214 | 2.0 | 8.0 | 0.00 | 0.00 | 0.00 | 47 | 1009.3 |
| 20260509014117 | 65 | 200 | 1.0 | 4.0 | 0.00 | 0.00 | 0.00 | 47 | 1009.1 |
| 20260509013618 | 65 | 211 | 1.0 | 4.0 | 0.00 | 0.00 | 0.00 | 46 | 1009.2 |
| 20260509013118 | 65 | 217 | 1.0 | 6.0 | 0.00 | 0.00 | 0.00 | 46 | 1009.2 |
| 20260509012619 | 66 | 219 | 2.0 | 6.0 | 0.00 | 0.00 | 0.00 | 46 | 1009.3 |
| 20260509012120 | 66 | 221 | 2.0 | 6.0 | 0.00 | 0.00 | 0.00 | 45 | 1009.2 |
| 20260509011613 | 66 | 217 | 1.0 | 6.0 | 0.00 | 0.00 | 0.00 | 45 | 1009.1 |
| 20260509011113 | 66 | 212 | 1.0 | 3.0 | 0.00 | 0.00 | 0.00 | 44 | 1009.1 |
| 20260509010613 | 66 | 217 | 2.0 | 7.0 | 0.00 | 0.00 | 0.00 | 44 | 1009.0 |
| 20260509005614 | 67 | 222 | 2.0 | 6.0 | 0.00 | 0.00 | 0.00 | 42 | 1009.0 |
| 20260509005113 | 67 | 181 | 2.0 | 7.0 | 0.00 | 0.00 | 0.00 | 42 | 1008.9 |
| 20260509004614 | 67 | 225 | 3.0 | 7.0 | 0.00 | 0.00 | 0.00 | 42 | 1008.9 |
| 20260509004110 | 67 | 212 | 3.0 | 9.0 | 0.00 | 0.00 | 0.00 | 41 | 1008.9 |
| 20260509003609 | 68 | 198 | 3.0 | 9.0 | 0.00 | 0.00 | 0.00 | 41 | 1008.8 |
| 20260509003110 | 68 | 198 | 2.0 | 7.0 | 0.00 | 0.00 | 0.00 | 41 | 1008.8 |
| 20260509002609 | 68 | 225 | 2.0 | 7.0 | 0.00 | 0.00 | 0.00 | 40 | 1008.7 |
| 20260509002109 | 68 | 219 | 2.0 | 8.0 | 0.00 | 0.00 | 0.00 | 40 | 1008.7 |
| 20260509001111 | 68 | 148 | 4.0 | 10.0 | 0.00 | 0.00 | 0.00 | 40 | 1008.6 |
| 20260509000106 | 69 | 229 | 6.0 | 14.0 | 0.00 | 0.00 | 0.00 | 40 | 1008.5 |
| 20260508235602 | 69 | 127 | 5.0 | 14.0 | 0.00 | 0.00 | 0.00 | 39 | 1008.4 |
| 20260508234559 | 69 | 159 | 4.0 | 10.0 | 0.00 | 0.00 | 0.00 | 40 | 1008.4 |
| 20260508234100 | 69 | 221 | 4.0 | 13.0 | 0.00 | 0.00 | 0.00 | 40 | 1008.4 |
| 20260508233553 | 69 | 210 | 4.0 | 13.0 | 0.00 | 0.00 | 0.00 | 39 | 1008.4 |
| 20260508233053 | 69 | 156 | 3.0 | 8.0 | 0.00 | 0.00 | 0.00 | 39 | 1008.3 |
| 20260508232553 | 69 | 181 | 3.0 | 11.0 | 0.00 | 0.00 | 0.00 | 39 | 1008.3 |
| 20260508232052 | 69 | 186 | 3.0 | 11.0 | 0.00 | 0.00 | 0.00 | 39 | 1008.3 |
| 20260508231054 | 70 | 181 | 4.0 | 9.0 | 0.00 | 0.00 | 0.00 | 37 | 1008.3 |
| 20260508230553 | 70 | 193 | 3.0 | 9.0 | 0.00 | 0.00 | 0.00 | 37 | 1008.3 |
| 20260508230047 | 70 | 246 | 3.0 | 8.0 | 0.00 | 0.00 | 0.00 | 37 | 1008.2 |
| 20260508225546 | 70 | 174 | 4.0 | 14.0 | 0.00 | 0.00 | 0.00 | 37 | 1008.0 |
| 20260508225047 | 70 | 177 | 5.0 | 14.0 | 0.00 | 0.00 | 0.00 | 36 | 1008.1 |
| 20260508224547 | 70 | 221 | 3.0 | 12.0 | 0.00 | 0.00 | 0.00 | 36 | 1008.1 |
| 20260508224047 | 70 | 226 | 2.0 | 11.0 | 0.00 | 0.00 | 0.00 | 36 | 1008.0 |
| 20260508223547 | 70 | 151 | 3.0 | 9.0 | 0.00 | 0.00 | 0.00 | 36 | 1008.1 |
| 20260508223050 | 70 | 219 | 5.0 | 11.0 | 0.00 | 0.00 | 0.00 | 36 | 1008.2 |
| 20260508222039 | 70 | 221 | 5.0 | 12.0 | 0.00 | 0.00 | 0.00 | 35 | 1008.2 |
| 20260508221540 | 70 | 200 | 3.0 | 12.0 | 0.00 | 0.00 | 0.00 | 36 | 1008.3 |
| 20260508221037 | 70 | 172 | 3.0 | 11.0 | 0.00 | 0.00 | 0.00 | 36 | 1008.2 |
| 20260508220538 | 71 | 215 | 3.0 | 12.0 | 0.00 | 0.00 | 0.00 | 35 | 1008.2 |
| 20260508220038 | 71 | 217 | 3.0 | 12.0 | 0.00 | 0.00 | 0.00 | 33 | 1008.1 |
| 20260508215536 | 71 | 225 | 3.0 | 9.0 | 0.00 | 0.00 | 0.00 | 31 | 1008.1 |
| 20260508214536 | 71 | 204 | 3.0 | 10.0 | 0.00 | 0.00 | 0.00 | 31 | 1008.1 |
| 20260508214035 | 71 | 211 | 2.0 | 6.0 | 0.00 | 0.00 | 0.00 | 31 | 1008.1 |
| 20260508213536 | 71 | 326 | 2.0 | 6.0 | 0.00 | 0.00 | 0.00 | 31 | 1008.2 |
| 20260508213034 | 71 | 321 | 3.0 | 8.0 | 0.00 | 0.00 | 0.00 | 31 | 1008.2 |
| 20260508212532 | 71 | 173 | 3.0 | 8.0 | 0.00 | 0.00 | 0.00 | 30 | 1008.2 |
| 20260508212025 | 72 | 201 | 3.0 | 12.0 | 0.00 | 0.00 | 0.00 | 30 | 1008.2 |
| 20260508211527 | 71 | 259 | 4.0 | 12.0 | 0.00 | 0.00 | 0.00 | 30 | 1008.2 |
| 20260508211026 | 71 | 163 | 3.0 | 10.0 | 0.00 | 0.00 | 0.00 | 30 | 1008.2 |
| 20260508210525 | 72 | 283 | 2.0 | 10.0 | 0.00 | 0.00 | 0.00 | 30 | 1008.1 |
| 20260508210025 | 71 | 212 | 3.0 | 11.0 | 0.00 | 0.00 | 0.00 | 30 | 1008.1 |
| 20260508205526 | 71 | 170 | 3.0 | 11.0 | 0.00 | 0.00 | 0.00 | 30 | 1008.2 |
| 20260508205028 | 71 | 302 | 3.0 | 9.0 | 0.00 | 0.00 | 0.00 | 31 | 1008.2 |
| 20260508204519 | 72 | 340 | 3.0 | 11.0 | 0.00 | 0.00 | 0.00 | 30 | 1008.2 |
| 20260508204016 | 72 | 172 | 5.0 | 11.0 | 0.00 | 0.00 | 0.00 | 30 | 1008.4 |
| 20260508203518 | 73 | 186 | 5.0 | 12.0 | 0.00 | 0.00 | 0.00 | 29 | 1008.4 |
| 20260508203014 | 73 | 203 | 5.0 | 14.0 | 0.00 | 0.00 | 0.00 | 29 | 1008.4 |
| 20260508202516 | 72 | 189 | 4.0 | 14.0 | 0.00 | 0.00 | 0.00 | 29 | 1008.5 |
| 20260508201512 | 73 | 172 | 6.0 | 14.0 | 0.00 | 0.00 | 0.00 | 29 | 1008.5 |
| 20260508201015 | 73 | 181 | 5.0 | 11.0 | 0.00 | 0.00 | 0.00 | 30 | 1008.5 |
| 20260508200514 | 73 | 189 | 5.0 | 13.0 | 0.00 | 0.00 | 0.00 | 30 | 1008.6 |
| 20260508200014 | 73 | 204 | 4.0 | 13.0 | 0.00 | 0.00 | 0.00 | 30 | 1008.6 |
| 20260508195514 | 73 | 245 | 2.0 | 12.0 | 0.00 | 0.00 | 0.00 | 29 | 1008.8 |
| 20260508195013 | 73 | 220 | 1.0 | 7.0 | 0.00 | 0.00 | 0.00 | 31 | 1008.8 |
| 20260508194512 | 72 | 166 | 3.0 | 11.0 | 0.00 | 0.00 | 0.00 | 32 | 1008.9 |
| 20260508193510 | 72 | 224 | 4.0 | 11.0 | 0.00 | 0.00 | 0.00 | 30 | 1009.1 |
| 20260508193011 | 73 | 302 | 5.0 | 14.0 | 0.00 | 0.00 | 0.00 | 30 | 1009.2 |
| 20260508192010 | 73 | 238 | 5.0 | 12.0 | 0.00 | 0.00 | 0.00 | 30 | 1009.5 |
| 20260508191509 | 73 | 229 | 4.0 | 12.0 | 0.00 | 0.00 | 0.00 | 30 | 1009.4 |
| 20260508191008 | 74 | 174 | 4.0 | 10.0 | 0.00 | 0.00 | 0.00 | 30 | 1009.5 |
| 20260508190510 | 74 | 285 | 5.0 | 19.0 | 0.00 | 0.00 | 0.00 | 30 | 1009.6 |
| 20260508185506 | 73 | 205 | 5.0 | 13.0 | 0.00 | 0.00 | 0.00 | 29 | 1009.7 |
| 20260508185007 | 72 | 200 | 4.0 | 13.0 | 0.00 | 0.00 | 0.00 | 30 | 1009.6 |
| 20260508184506 | 72 | 86 | 3.0 | 12.0 | 0.00 | 0.00 | 0.00 | 30 | 1009.7 |
| 20260508183009 | 71 | 224 | 3.0 | 11.0 | 0.00 | 0.00 | 0.00 | 32 | 1010.0 |
| 20260508182509 | 72 | 217 | 4.0 | 12.0 | 0.00 | 0.00 | 0.00 | 31 | 1010.0 |
| 20260508182002 | 72 | 224 | 4.0 | 12.0 | 0.00 | 0.00 | 0.00 | 31 | 1009.9 |
| 20260508181500 | 72 | 242 | 4.0 | 12.0 | 0.00 | 0.00 | 0.00 | 31 | 1010.1 |
| 20260508181001 | 72 | 210 | 4.0 | 12.0 | 0.00 | 0.00 | 0.00 | 31 | 1010.2 |
| 20260508180500 | 71 | 199 | 4.0 | 13.0 | 0.00 | 0.00 | 0.00 | 30 | 1010.1 |
| 20260508180000 | 72 | 248 | 4.0 | 13.0 | 0.00 | 0.00 | 0.00 | 30 | 1010.0 |
| 20260508175500 | 72 | 197 | 3.0 | 10.0 | 0.00 | 0.00 | 0.00 | 31 | 1010.1 |
| 20260508175000 | 71 | 259 | 4.0 | 10.0 | 0.00 | 0.00 | 0.00 | 29 | 1010.1 |
| 20260508174503 | 71 | 287 | 4.0 | 13.0 | 0.00 | 0.00 | 0.00 | 31 | 1010.2 |
| 20260508173955 | 70 | 299 | 4.0 | 13.0 | 0.00 | 0.00 | 0.00 | 32 | 1010.3 |
| 20260508173456 | 70 | 194 | 5.0 | 16.0 | 0.00 | 0.00 | 0.00 | 32 | 1010.4 |
| 20260508172955 | 70 | 198 | 5.0 | 16.0 | 0.00 | 0.00 | 0.00 | 31 | 1010.5 |
| 20260508172455 | 71 | 246 | 5.0 | 13.0 | 0.00 | 0.00 | 0.00 | 30 | 1010.5 |
| 20260508171954 | 71 | 319 | 4.0 | 13.0 | 0.00 | 0.00 | 0.00 | 31 | 1010.5 |
| 20260508171456 | 72 | 178 | 2.0 | 9.0 | 0.00 | 0.00 | 0.00 | 31 | 1010.6 |
| 20260508170956 | 71 | 179 | 3.0 | 10.0 | 0.00 | 0.00 | 0.00 | 32 | 1010.7 |
| 20260508170451 | 70 | 212 | 4.0 | 10.0 | 0.00 | 0.00 | 0.00 | 32 | 1010.7 |
| 20260508165951 | 71 | 210 | 4.0 | 11.0 | 0.00 | 0.00 | 0.00 | 32 | 1010.8 |
| 20260508165451 | 70 | 200 | 5.0 | 16.0 | 0.00 | 0.00 | 0.00 | 31 | 1010.9 |
| 20260508164951 | 70 | 215 | 4.0 | 16.0 | 0.00 | 0.00 | 0.00 | 32 | 1011.0 |
| 20260508164451 | 70 | 184 | 4.0 | 12.0 | 0.00 | 0.00 | 0.00 | 32 | 1010.9 |
| 20260508163951 | 69 | 11 | 5.0 | 14.0 | 0.00 | 0.00 | 0.00 | 32 | 1011.1 |
| 20260508163452 | 69 | 295 | 4.0 | 14.0 | 0.00 | 0.00 | 0.00 | 32 | 1011.2 |
| 20260508162947 | 70 | 313 | 4.0 | 8.0 | 0.00 | 0.00 | 0.00 | 32 | 1011.3 |
| 20260508162448 | 69 | 290 | 3.0 | 11.0 | 0.00 | 0.00 | 0.00 | 32 | 1011.2 |
| 20260508161947 | 69 | 211 | 3.0 | 11.0 | 0.00 | 0.00 | 0.00 | 33 | 1011.4 |
| 20260508161447 | 69 | 285 | 3.0 | 12.0 | 0.00 | 0.00 | 0.00 | 33 | 1011.4 |
| 20260508160947 | 68 | 290 | 4.0 | 14.0 | 0.00 | 0.00 | 0.00 | 34 | 1011.5 |
| 20260508160448 | 67 | 323 | 5.0 | 14.0 | 0.00 | 0.00 | 0.00 | 33 | 1011.6 |
| 20260508155943 | 68 | 341 | 4.0 | 14.0 | 0.00 | 0.00 | 0.00 | 33 | 1011.7 |
| 20260508155443 | 68 | 313 | 3.0 | 8.0 | 0.00 | 0.00 | 0.00 | 33 | 1011.7 |
| 20260508154942 | 68 | 0 | 4.0 | 11.0 | 0.00 | 0.00 | 0.00 | 34 | 1011.7 |
| 20260508153942 | 67 | 210 | 3.0 | 14.0 | 0.00 | 0.00 | 0.00 | 34 | 1011.7 |
| 20260508153443 | 67 | 309 | 4.0 | 8.0 | 0.00 | 0.00 | 0.00 | 34 | 1011.8 |
| 20260508152939 | 67 | 316 | 3.0 | 8.0 | 0.00 | 0.00 | 0.00 | 35 | 1011.9 |
| 20260508152439 | 67 | 311 | 3.0 | 10.0 | 0.00 | 0.00 | 0.00 | 34 | 1012.0 |
| 20260508151940 | 67 | 224 | 3.0 | 10.0 | 0.00 | 0.00 | 0.00 | 34 | 1012.1 |
| 20260508150938 | 67 | 194 | 2.0 | 9.0 | 0.00 | 0.00 | 0.00 | 34 | 1012.2 |
| 20260508150440 | 66 | 318 | 4.0 | 11.0 | 0.00 | 0.00 | 0.00 | 35 | 1012.3 |
| 20260508145435 | 65 | 228 | 5.0 | 14.0 | 0.00 | 0.00 | 0.00 | 35 | 1012.4 |
| 20260508144936 | 65 | 97 | 4.0 | 11.0 | 0.00 | 0.00 | 0.00 | 35 | 1012.4 |
| 20260508144434 | 65 | 276 | 3.0 | 11.0 | 0.00 | 0.00 | 0.00 | 34 | 1012.4 |
| 20260508143935 | 65 | 243 | 3.0 | 9.0 | 0.00 | 0.00 | 0.00 | 35 | 1012.4 |
| 20260508143435 | 65 | 329 | 3.0 | 9.0 | 0.00 | 0.00 | 0.00 | 34 | 1012.4 |
| 20260508142931 | 65 | 323 | 3.0 | 9.0 | 0.00 | 0.00 | 0.00 | 35 | 1012.4 |
| 20260508142431 | 65 | 4 | 2.0 | 7.0 | 0.00 | 0.00 | 0.00 | 36 | 1012.4 |
| 20260508141932 | 64 | 255 | 2.0 | 8.0 | 0.00 | 0.00 | 0.00 | 36 | 1012.4 |
| 20260508141431 | 64 | 250 | 2.0 | 8.0 | 0.00 | 0.00 | 0.00 | 35 | 1012.5 |
| 20260508140931 | 64 | 226 | 2.0 | 7.0 | 0.00 | 0.00 | 0.00 | 36 | 1012.5 |
| 20260508140432 | 63 | 197 | 3.0 | 9.0 | 0.00 | 0.00 | 0.00 | 38 | 1012.5 |
| 20260508135931 | 63 | 276 | 3.0 | 10.0 | 0.00 | 0.00 | 0.00 | 38 | 1012.6 |
| 20260508135430 | 63 | 238 | 3.0 | 10.0 | 0.00 | 0.00 | 0.00 | 38 | 1012.7 |
| 20260508134931 | 63 | 242 | 1.0 | 9.0 | 0.00 | 0.00 | 0.00 | 40 | 1012.7 |
| 20260508134432 | 62 | 314 | 2.0 | 8.0 | 0.00 | 0.00 | 0.00 | 41 | 1012.8 |
| 20260508133931 | 62 | 332 | 2.0 | 8.0 | 0.00 | 0.00 | 0.00 | 42 | 1012.8 |
| 20260508133427 | 61 | 330 | 2.0 | 8.0 | 0.00 | 0.00 | 0.00 | 43 | 1012.7 |
| 20260508132928 | 62 | 330 | 1.0 | 8.0 | 0.00 | 0.00 | 0.00 | 43 | 1012.8 |
| 20260508132426 | 61 | 285 | 1.0 | 6.0 | 0.00 | 0.00 | 0.00 | 43 | 1012.8 |
| 20260508131927 | 61 | 242 | 1.0 | 8.0 | 0.00 | 0.00 | 0.00 | 43 | 1012.8 |
| 20260508131426 | 61 | 305 | 1.0 | 8.0 | 0.00 | 0.00 | 0.00 | 44 | 1012.8 |
| 20260508130422 | 60 | 204 | 1.0 | 5.0 | 0.00 | 0.00 | 0.00 | 45 | 1012.9 |
| 20260508125923 | 60 | 288 | 1.0 | 5.0 | 0.00 | 0.00 | 0.00 | 46 | 1013.0 |
| 20260508125422 | 60 | 315 | 1.0 | 5.0 | 0.00 | 0.00 | 0.00 | 47 | 1013.0 |
| 20260508124923 | 60 | 201 | 1.0 | 5.0 | 0.00 | 0.00 | 0.00 | 46 | 1012.9 |
| 20260508124422 | 59 | 304 | 1.0 | 6.0 | 0.00 | 0.00 | 0.00 | 47 | 1012.9 |
| 20260508123418 | 59 | 324 | 2.0 | 6.0 | 0.00 | 0.00 | 0.00 | 48 | 1012.7 |
| 20260508122920 | 59 | 274 | 1.0 | 6.0 | 0.00 | 0.00 | 0.00 | 47 | 1012.8 |
| 20260508122419 | 59 | 26 | 0.0 | 3.0 | 0.00 | 0.00 | 0.00 | 48 | 1012.8 |
| 20260508121918 | 59 | 348 | 0.0 | 2.0 | 0.00 | 0.00 | 0.00 | 46 | 1012.7 |
| 20260508121420 | 60 | 332 | 0.0 | 1.0 | 0.00 | 0.00 | 0.00 | 48 | 1012.6 |
| 20260508120921 | 59 | 36 | 0.0 | 1.0 | 0.00 | 0.00 | 0.00 | 49 | 1012.7 |
| 20260508120416 | 58 | 236 | 0.0 | 0.0 | 0.00 | 0.00 | 0.00 | 50 | 1012.5 |
| 20260508115917 | 57 | 214 | 0.0 | 2.0 | 0.00 | 0.00 | 0.00 | 49 | 1012.6 |
| 20260508115416 | 57 | 354 | 0.0 | 2.0 | 0.00 | 0.00 | 0.00 | 52 | 1012.6 |
| 20260508114915 | 57 | 339 | 0.0 | 1.0 | 0.00 | 0.00 | 0.00 | 52 | 1012.6 |
| 20260508114414 | 57 | 205 | 0.0 | 0.0 | 0.00 | 0.00 | 0.00 | 53 | 1012.6 |
| 20260508113916 | 57 | 77 | 0.0 | 0.0 | 0.00 | 0.00 | 0.00 | 59 | 1012.5 |
| 20260508112915 | 56 | 338 | 0.0 | 0.0 | 0.00 | 0.00 | 0.00 | 57 | 1012.3 |
| 20260508112415 | 55 | 264 | 0.0 | 0.0 | 0.00 | 0.00 | 0.00 | 61 | 1012.2 |
| 20260508111915 | 54 | 236 | 0.0 | 0.0 | 0.00 | 0.00 | 0.00 | 60 | 1012.1 |
| 20260508111416 | 54 | 58 | 0.0 | 0.0 | 0.00 | 0.00 | 0.00 | 60 | 1012.1 |
| 20260508110910 | 54 | 314 | 0.0 | 0.0 | 0.00 | 0.00 | 0.00 | 66 | 1012.1 |
| 20260508110411 | 52 | 315 | 0.0 | 0.0 | 0.00 | 0.00 | 0.00 | 65 | 1012.0 |
| 20260508105911 | 52 | 315 | 0.0 | 0.0 | 0.00 | 0.00 | 0.00 | 63 | 1011.8 |
| 20260508105410 | 51 | 315 | 0.0 | 0.0 | 0.00 | 0.00 | 0.00 | 68 | 1011.8 |
| 20260508104912 | 51 | 316 | 0.0 | 0.0 | 0.00 | 0.00 | 0.00 | 66 | 1011.7 |
| 20260508104412 | 51 | 316 | 0.0 | 0.0 | 0.00 | 0.00 | 0.00 | 69 | 1011.8 |
| 20260508103906 | 51 | 316 | 0.0 | 2.0 | 0.00 | 0.00 | 0.00 | 65 | 1011.7 |
| 20260508103406 | 51 | 316 | 0.0 | 3.0 | 0.00 | 0.00 | 0.00 | 65 | 1011.7 |
| 20260508102908 | 51 | 321 | 0.0 | 3.0 | 0.00 | 0.00 | 0.00 | 66 | 1011.7 |
| 20260508102407 | 51 | 274 | 1.0 | 4.0 | 0.00 | 0.00 | 0.00 | 65 | 1011.6 |
| 20260508101909 | 51 | 315 | 1.0 | 4.0 | 0.00 | 0.00 | 0.00 | 64 | 1011.6 |
| 20260508101407 | 50 | 332 | 0.0 | 4.0 | 0.00 | 0.00 | 0.00 | 68 | 1011.5 |
| 20260508100902 | 50 | 27 | 0.0 | 0.0 | 0.00 | 0.00 | 0.00 | 65 | 1011.4 |
| 20260508100403 | 51 | 27 | 0.0 | 0.0 | 0.00 | 0.00 | 0.00 | 63 | 1011.4 |
| 20260508095903 | 51 | 27 | 0.0 | 2.0 | 0.00 | 0.00 | 0.00 | 62 | 1011.3 |
| 20260508095402 | 51 | 27 | 0.0 | 2.0 | 0.00 | 0.00 | 0.00 | 63 | 1011.3 |
| 20260508094902 | 51 | 316 | 0.0 | 3.0 | 0.00 | 0.00 | 0.00 | 62 | 1011.2 |
| 20260508094401 | 51 | 324 | 0.0 | 5.0 | 0.00 | 0.00 | 0.00 | 62 | 1011.2 |
| 20260508093401 | 51 | 341 | 1.0 | 6.0 | 0.00 | 0.00 | 0.00 | 63 | 1011.2 |
| 20260508092358 | 52 | 28 | 1.0 | 7.0 | 0.00 | 0.00 | 0.00 | 63 | 1011.1 |
| 20260508091851 | 52 | 316 | 1.0 | 6.0 | 0.00 | 0.00 | 0.00 | 62 | 1011.1 |
| 20260508091352 | 52 | 304 | 1.0 | 5.0 | 0.00 | 0.00 | 0.00 | 62 | 1011.1 |
| 20260508090851 | 52 | 37 | 2.0 | 8.0 | 0.00 | 0.00 | 0.00 | 61 | 1011.0 |
| 20260508090348 | 52 | 75 | 3.0 | 8.0 | 0.00 | 0.00 | 0.00 | 61 | 1011.1 |
| 20260508085850 | 52 | 29 | 3.0 | 12.0 | 0.00 | 0.00 | 0.00 | 62 | 1010.9 |
| 20260508085349 | 52 | 43 | 2.0 | 12.0 | 0.00 | 0.00 | 0.00 | 62 | 1010.8 |
| 20260508084848 | 52 | 19 | 0.0 | 3.0 | 0.00 | 0.00 | 0.00 | 64 | 1010.7 |
| 20260508084342 | 52 | 43 | 0.0 | 1.0 | 0.00 | 0.00 | 0.00 | 64 | 1010.7 |
| 20260508083842 | 52 | 56 | 0.0 | 2.0 | 0.00 | 0.00 | 0.00 | 65 | 1010.7 |
| 20260508083340 | 52 | 297 | 0.0 | 2.0 | 0.00 | 0.00 | 0.00 | 65 | 1010.7 |
| 20260508082337 | 52 | 310 | 0.0 | 5.0 | 0.00 | 0.00 | 0.00 | 65 | 1010.6 |
| 20260508081837 | 52 | 308 | 0.0 | 5.0 | 0.00 | 0.00 | 0.00 | 64 | 1010.6 |
| 20260508081331 | 53 | 281 | 0.0 | 1.0 | 0.00 | 0.00 | 0.00 | 65 | 1010.6 |
| 20260508080329 | 53 | 359 | 0.0 | 4.0 | 0.00 | 0.00 | 0.00 | 65 | 1010.5 |
| 20260508075828 | 53 | 38 | 1.0 | 4.0 | 0.00 | 0.00 | 0.00 | 67 | 1010.4 |
| 20260508075330 | 53 | 12 | 0.0 | 4.0 | 0.00 | 0.00 | 0.00 | 65 | 1010.4 |
| 20260508074828 | 53 | 359 | 0.0 | 2.0 | 0.00 | 0.00 | 0.00 | 67 | 1010.3 |
| 20260508074328 | 53 | 319 | 0.0 | 2.0 | 0.00 | 0.00 | 0.00 | 67 | 1010.3 |
| 20260508073824 | 53 | 339 | 0.0 | 4.0 | 0.00 | 0.00 | 0.00 | 68 | 1010.2 |
| 20260508073327 | 53 | 11 | 0.0 | 4.0 | 0.00 | 0.00 | 0.00 | 68 | 1010.2 |
| 20260508072825 | 53 | 335 | 0.0 | 1.0 | 0.00 | 0.00 | 0.00 | 69 | 1010.0 |
| 20260508072326 | 53 | 261 | 0.0 | 1.0 | 0.00 | 0.00 | 0.00 | 70 | 1009.9 |
| 20260508071825 | 53 | 269 | 0.0 | 2.0 | 0.00 | 0.00 | 0.00 | 71 | 1009.8 |
| 20260508071320 | 53 | 307 | 1.0 | 5.0 | 0.00 | 0.00 | 0.00 | 71 | 1009.8 |
| 20260508070814 | 53 | 243 | 1.0 | 5.0 | 0.00 | 0.00 | 0.00 | 71 | 1009.8 |
| 20260508070316 | 54 | 349 | 0.0 | 5.0 | 0.00 | 0.00 | 0.00 | 71 | 1009.7 |
| 20260508065315 | 54 | 324 | 1.0 | 4.0 | 0.00 | 0.00 | 0.00 | 71 | 1009.6 |
| 20260508064815 | 54 | 283 | 1.0 | 5.0 | 0.00 | 0.00 | 0.00 | 71 | 1009.5 |
| 20260508064317 | 54 | 320 | 1.0 | 5.0 | 0.00 | 0.00 | 0.00 | 72 | 1009.5 |
| 20260508063810 | 54 | 338 | 1.0 | 5.0 | 0.00 | 0.00 | 0.00 | 72 | 1009.4 |
| 20260508063308 | 54 | 228 | 1.0 | 5.0 | 0.00 | 0.00 | 0.00 | 73 | 1009.4 |
| 20260508062806 | 54 | 312 | 1.0 | 5.0 | 0.00 | 0.00 | 0.00 | 74 | 1009.3 |
| 20260508062309 | 54 | 340 | 1.0 | 5.0 | 0.00 | 0.00 | 0.00 | 76 | 1009.3 |
| 20260508061305 | 53 | 317 | 0.0 | 4.0 | 0.00 | 0.00 | 0.00 | 79 | 1009.3 |
| 20260508060806 | 53 | 219 | 0.0 | 3.0 | 0.00 | 0.00 | 0.00 | 80 | 1009.2 |
| 20260508060302 | 53 | 322 | 0.0 | 4.0 | 0.00 | 0.00 | 0.00 | 80 | 1009.2 |
| 20260508055802 | 53 | 244 | 1.0 | 4.0 | 0.00 | 0.01 | 0.00 | 81 | 1009.3 |